{"data":{"norad_id":48071,"epoch":"2026-09-20T01:37:20.993376Z","epoch_age_seconds":59268,"freshness":"FRESH","line1":"1 48071U 21025AF  26263.06760409 -.00000156  00000+0 -46106-3 0  9994","line2":"2 48071  87.8920 301.3474 0001721  91.7250 268.4077 13.13471555266961","mean_motion":13.13471555,"eccentricity":0.0001721,"inclination_deg":87.892,"raan_deg":301.3474,"arg_perigee_deg":91.725,"mean_anomaly_deg":268.4077,"bstar":-0.00046106,"rev_number":26696,"period_min":109.63313172016,"perigee_km":1208.4535341214,"apogee_km":1211.0652880661,"semimajor_km":7587.8964110937,"source":"CELESTRAK","updated_at":"2026-09-20T09:00:44.590393Z"}}